Location: Cisewo
(53.3833°N, 14.9000°E)
Time: 11:58:32
(UTC+00:00)

USA 229 - Pass Details

Date: 01 August 2021
Orbit: 956 x 1256 km, 63.5° (Epoch: 08 August)

Event Time Altitude Azimuth Distance (km) Brightness Sun altitude
Rises 21:50:40 0° 313° (NW) 3,949 7.8 -17.0°
Reaches altitude 10° 21:53:22 10° 308° (NW) 3,030 6.9 -17.1°
Maximum altitude 22:00:18 49° 236° (SW) 1,496 4.3 -17.4°
Enters shadow 22:04:33 25° 176° (S) 2,233 4.8 -17.6°
